| time (UTC) | temp F | wind direction | speed knots | gust knots | rain 1hr in | rain 24hr in | rain mn in | humidity % | barometer mb |
| 20260901173007 | 90 | 193 | 0.9 | 2.6 | 0.00 | 0.00 | 0.00 | 61 | 1012.5 |
| 20260901172004 | 89 | 194 | 0.9 | 3.5 | 0.00 | 0.00 | 0.00 | 62 | 1012.6 |
| 20260901171507 | 89 | 191 | 0.9 | 5.2 | 0.00 | 0.00 | 0.00 | 60 | 1012.6 |
| 20260901171003 | 89 | 184 | 0.9 | 5.2 | 0.00 | 0.00 | 0.00 | 61 | 1012.7 |
| 20260901170008 | 88 | 182 | 0.9 | 3.5 | 0.00 | 0.00 | 0.00 | 62 | 1012.8 |
| 20260901165503 | 88 | 188 | 1.7 | 4.3 | 0.00 | 0.00 | 0.00 | 60 | 1012.7 |
| 20260901164508 | 87 | 194 | 1.7 | 5.2 | 0.00 | 0.00 | 0.00 | 62 | 1012.8 |
| 20260901164004 | 87 | 195 | 1.7 | 4.3 | 0.00 | 0.00 | 0.00 | 62 | 1012.9 |
| 20260901163503 | 87 | 193 | 0.9 | 2.6 | 0.00 | 0.00 | 0.00 | 61 | 1012.8 |
| 20260901163007 | 87 | 194 | 0.9 | 2.6 | 0.00 | 0.00 | 0.00 | 63 | 1012.8 |
| 20260901162503 | 87 | 199 | 0.9 | 2.6 | 0.00 | 0.00 | 0.00 | 61 | 1012.8 |
| 20260901160504 | 86 | 185 | 0.9 | 3.5 | 0.00 | 0.00 | 0.00 | 62 | 1012.9 |
| 20260901160008 | 86 | 189 | 0.9 | 3.5 | 0.00 | 0.00 | 0.00 | 64 | 1012.8 |
| 20260901155504 | 86 | 188 | 0.0 | 2.6 | 0.00 | 0.00 | 0.00 | 63 | 1012.8 |
| 20260901154508 | 85 | 183 | 0.9 | 3.5 | 0.00 | 0.00 | 0.00 | 65 | 1012.7 |
| 20260901154004 | 84 | 181 | 0.9 | 3.5 | 0.00 | 0.00 | 0.00 | 66 | 1012.7 |
| 20260901153503 | 84 | 172 | 0.9 | 1.7 | 0.00 | 0.00 | 0.00 | 66 | 1012.8 |
| 20260901153008 | 84 | 158 | 0.9 | 2.6 | 0.00 | 0.00 | 0.00 | 67 | 1012.7 |
| 20260901152504 | 84 | 156 | 0.0 | 2.6 | 0.00 | 0.00 | 0.00 | 68 | 1012.6 |
| 20260901151507 | 83 | 181 | 0.9 | 3.5 | 0.00 | 0.00 | 0.00 | 67 | 1012.7 |
| 20260901151004 | 83 | 176 | 0.0 | 3.5 | 0.00 | 0.00 | 0.00 | 68 | 1012.7 |
| 20260901150503 | 82 | 179 | 0.9 | 3.5 | 0.00 | 0.00 | 0.00 | 69 | 1012.7 |
| 20260901150008 | 82 | 181 | 0.0 | 1.7 | 0.00 | 0.00 | 0.00 | 68 | 1012.7 |
| 20260901145003 | 82 | 169 | 0.9 | 3.5 | 0.00 | 0.00 | 0.00 | 70 | 1012.9 |
| 20260901144004 | 81 | 181 | 0.9 | 2.6 | 0.00 | 0.00 | 0.00 | 71 | 1012.9 |
| 20260901143503 | 81 | 174 | 0.9 | 2.6 | 0.00 | 0.00 | 0.00 | 70 | 1013.0 |
| 20260901143007 | 81 | 172 | 0.9 | 1.7 | 0.00 | 0.00 | 0.00 | 71 | 1013.0 |
| 20260901142503 | 80 | 178 | 0.9 | 1.7 | 0.00 | 0.00 | 0.00 | 72 | 1013.0 |
| 20260901142003 | 80 | 182 | 0.9 | 4.3 | 0.00 | 0.00 | 0.00 | 75 | 1013.0 |
| 20260901141003 | 79 | 207 | 0.0 | 1.7 | 0.00 | 0.00 | 0.00 | 78 | 1013.2 |
| 20260901140504 | 79 | 199 | 0.0 | 1.7 | 0.00 | 0.00 | 0.00 | 79 | 1013.2 |
| 20260901140007 | 79 | 198 | 0.0 | 2.6 | 0.00 | 0.00 | 0.00 | 80 | 1013.2 |
| 20260901135003 | 78 | 196 | 0.9 | 2.6 | 0.00 | 0.00 | 0.00 | 81 | 1013.1 |
| 20260901134507 | 78 | 186 | 0.9 | 2.6 | 0.00 | 0.00 | 0.00 | 82 | 1013.1 |
| 20260901134004 | 78 | 187 | 0.9 | 2.6 | 0.00 | 0.00 | 0.00 | 82 | 1013.1 |
| 20260901132504 | 77 | 196 | 0.0 | 2.6 | 0.00 | 0.00 | 0.00 | 83 | 1013.1 |
| 20260901132004 | 77 | 195 | 0.0 | 1.7 | 0.00 | 0.00 | 0.00 | 84 | 1013.1 |
| 20260901131508 | 77 | 204 | 0.0 | 3.5 | 0.00 | 0.00 | 0.00 | 85 | 1013.1 |
| 20260901131003 | 77 | 204 | 0.0 | 3.5 | 0.00 | 0.00 | 0.00 | 85 | 1013.1 |
| 20260901130008 | 77 | 206 | 0.0 | 1.7 | 0.00 | 0.00 | 0.00 | 84 | 1013.1 |
| 20260901125503 | 76 | 196 | 0.0 | 1.7 | 0.00 | 0.00 | 0.00 | 84 | 1012.9 |
| 20260901125004 | 76 | 193 | 0.0 | 1.7 | 0.00 | 0.00 | 0.00 | 85 | 1013.0 |
| 20260901124508 | 76 | 202 | 0.0 | 2.6 | 0.00 | 0.00 | 0.00 | 85 | 1012.9 |
| 20260901123504 | 76 | 204 | 0.0 | 1.7 | 0.00 | 0.00 | 0.00 | 86 | 1012.7 |
| 20260901123007 | 76 | 190 | 0.0 | 2.6 | 0.00 | 0.00 | 0.00 | 86 | 1012.7 |
| 20260901122504 | 76 | 196 | 0.0 | 2.6 | 0.00 | 0.00 | 0.00 | 86 | 1012.6 |
| 20260901122004 | 75 | 210 | 0.0 | 1.7 | 0.00 | 0.00 | 0.00 | 86 | 1012.4 |
| 20260901121507 | 75 | 202 | 0.0 | 0.9 | 0.00 | 0.00 | 0.00 | 86 | 1012.4 |
| 20260901121003 | 75 | 213 | 0.0 | 0.9 | 0.00 | 0.00 | 0.00 | 87 | 1012.3 |
| 20260901120008 | 75 | 0 | 0.0 | 0.0 | 0.00 | 0.00 | 0.00 | 89 | 1012.2 |
| 20260901115503 | 74 | 0 | 0.0 | 0.0 | 0.00 | 0.00 | 0.00 | 89 | 1012.2 |
| 20260901115003 | 74 | 0 | 0.0 | 0.0 | 0.00 | 0.00 | 0.00 | 89 | 1012.3 |
| 20260901114508 | 74 | 0 | 0.0 | 0.0 | 0.00 | 0.00 | 0.00 | 89 | 1012.3 |
| 20260901114003 | 74 | 0 | 0.0 | 0.0 | 0.00 | 0.00 | 0.00 | 90 | 1012.2 |
| 20260901113503 | 74 | 0 | 0.0 | 0.0 | 0.00 | 0.00 | 0.00 | 90 | 1012.3 |
| 20260901112503 | 74 | 0 | 0.0 | 0.0 | 0.00 | 0.00 | 0.00 | 90 | 1012.4 |
| 20260901111508 | 75 | 0 | 0.0 | 0.0 | 0.00 | 0.00 | 0.00 | 90 | 1012.3 |
| 20260901111003 | 75 | 0 | 0.0 | 0.0 | 0.00 | 0.00 | 0.00 | 90 | 1012.3 |
| 20260901110503 | 75 | 0 | 0.0 | 0.0 | 0.00 | 0.00 | 0.00 | 90 | 1012.4 |
| 20260901110008 | 75 | 0 | 0.0 | 0.0 | 0.00 | 0.00 | 0.00 | 90 | 1012.5 |
| 20260901105503 | 76 | 0 | 0.0 | 0.0 | 0.00 | 0.00 | 0.00 | 90 | 1012.5 |
| 20260901105003 | 76 | 0 | 0.0 | 0.0 | 0.00 | 0.00 | 0.00 | 90 | 1012.4 |
| 20260901104508 | 76 | 0 | 0.0 | 0.0 | 0.00 | 0.00 | 0.00 | 90 | 1012.5 |
| 20260901104003 | 76 | 0 | 0.0 | 0.0 | 0.00 | 0.00 | 0.00 | 90 | 1012.5 |
| 20260901103503 | 76 | 0 | 0.0 | 0.0 | 0.00 | 0.00 | 0.00 | 90 | 1012.5 |
| 20260901103008 | 76 | 221 | 0.0 | 0.9 | 0.00 | 0.00 | 0.00 | 90 | 1012.4 |
| 20260901102503 | 76 | 220 | 0.0 | 0.9 | 0.00 | 0.00 | 0.00 | 90 | 1012.6 |
| 20260901102003 | 76 | 215 | 0.0 | 0.9 | 0.00 | 0.00 | 0.00 | 90 | 1012.6 |
| 20260901101508 | 76 | 0 | 0.0 | 0.0 | 0.00 | 0.00 | 0.00 | 91 | 1012.7 |
| 20260901100503 | 76 | 0 | 0.0 | 0.0 | 0.00 | 0.00 | 0.00 | 91 | 1012.7 |
| 20260901100008 | 76 | 0 | 0.0 | 0.0 | 0.00 | 0.00 | 0.00 | 91 | 1012.7 |
| 20260901095503 | 76 | 0 | 0.0 | 0.0 | 0.00 | 0.00 | 0.00 | 92 | 1012.7 |
| 20260901095004 | 76 | 0 | 0.0 | 0.0 | 0.00 | 0.00 | 0.00 | 92 | 1012.8 |
| 20260901094003 | 76 | 0 | 0.0 | 0.0 | 0.00 | 0.00 | 0.00 | 93 | 1012.8 |
| 20260901093503 | 76 | 213 | 0.0 | 0.9 | 0.00 | 0.00 | 0.00 | 93 | 1012.8 |
| 20260901093008 | 76 | 213 | 0.0 | 0.9 | 0.00 | 0.00 | 0.00 | 94 | 1012.8 |
| 20260901092503 | 75 | 0 | 0.0 | 0.0 | 0.00 | 0.00 | 0.00 | 94 | 1012.9 |
| 20260901092003 | 75 | 0 | 0.0 | 0.0 | 0.00 | 0.00 | 0.00 | 95 | 1012.9 |
| 20260901091508 | 75 | 0 | 0.0 | 0.0 | 0.00 | 0.00 | 0.00 | 96 | 1012.8 |
| 20260901091004 | 74 | 0 | 0.0 | 0.0 | 0.00 | 0.00 | 0.00 | 96 | 1012.8 |
| 20260901090504 | 74 | 0 | 0.0 | 0.0 | 0.00 | 0.00 | 0.00 | 96 | 1012.8 |
| 20260901090008 | 74 | 0 | 0.0 | 0.0 | 0.00 | 0.00 | 0.00 | 96 | 1012.8 |
| 20260901084003 | 74 | 0 | 0.0 | 0.0 | 0.00 | 0.00 | 0.00 | 95 | 1012.7 |
| 20260901083503 | 74 | 0 | 0.0 | 0.0 | 0.00 | 0.00 | 0.00 | 95 | 1012.6 |
| 20260901083008 | 74 | 0 | 0.0 | 0.0 | 0.00 | 0.00 | 0.00 | 95 | 1012.7 |
| 20260901082003 | 74 | 0 | 0.0 | 0.0 | 0.00 | 0.00 | 0.00 | 95 | 1012.6 |
| 20260901081508 | 74 | 0 | 0.0 | 0.0 | 0.00 | 0.00 | 0.00 | 95 | 1012.6 |
| 20260901080008 | 75 | 0 | 0.0 | 0.0 | 0.00 | 0.00 | 0.00 | 94 | 1012.7 |
| 20260901075503 | 75 | 0 | 0.0 | 0.0 | 0.00 | 0.00 | 0.00 | 94 | 1012.8 |
| 20260901075004 | 75 | 0 | 0.0 | 0.0 | 0.00 | 0.00 | 0.00 | 94 | 1012.8 |
| 20260901074508 | 75 | 0 | 0.0 | 0.0 | 0.00 | 0.00 | 0.00 | 94 | 1012.8 |
| 20260901073504 | 75 | 0 | 0.0 | 0.0 | 0.00 | 0.00 | 0.00 | 94 | 1012.8 |
| 20260901072503 | 75 | 0 | 0.0 | 0.0 | 0.00 | 0.00 | 0.00 | 94 | 1012.8 |
| 20260901071003 | 75 | 0 | 0.0 | 0.0 | 0.00 | 0.00 | 0.00 | 94 | 1012.9 |
| 20260901070503 | 75 | 0 | 0.0 | 0.0 | 0.00 | 0.00 | 0.00 | 94 | 1012.9 |
| 20260901070008 | 76 | 0 | 0.0 | 0.0 | 0.00 | 0.00 | 0.00 | 94 | 1012.9 |
| 20260901065503 | 75 | 0 | 0.0 | 0.0 | 0.00 | 0.00 | 0.00 | 94 | 1013.0 |
| 20260901065004 | 75 | 0 | 0.0 | 0.0 | 0.00 | 0.00 | 0.00 | 93 | 1012.9 |
| 20260901064508 | 76 | 0 | 0.0 | 0.0 | 0.00 | 0.00 | 0.00 | 93 | 1012.9 |
| 20260901064003 | 76 | 0 | 0.0 | 0.0 | 0.00 | 0.00 | 0.00 | 93 | 1013.0 |
| 20260901063504 | 76 | 0 | 0.0 | 0.0 | 0.00 | 0.00 | 0.00 | 93 | 1013.0 |
| 20260901062503 | 76 | 0 | 0.0 | 0.0 | 0.00 | 0.00 | 0.00 | 93 | 1013.0 |
| 20260901061508 | 76 | 0 | 0.0 | 0.0 | 0.00 | 0.00 | 0.00 | 93 | 1013.0 |
| 20260901061004 | 76 | 0 | 0.0 | 0.0 | 0.00 | 0.00 | 0.00 | 93 | 1013.1 |
| 20260901060503 | 76 | 0 | 0.0 | 0.0 | 0.00 | 0.00 | 0.00 | 93 | 1013.1 |
| 20260901060009 | 76 | 0 | 0.0 | 0.0 | 0.00 | 0.00 | 0.00 | 93 | 1013.1 |
| 20260901055503 | 76 | 0 | 0.0 | 0.0 | 0.00 | 0.00 | 0.00 | 93 | 1013.1 |
| 20260901054003 | 76 | 0 | 0.0 | 0.0 | 0.00 | 0.00 | 0.00 | 93 | 1013.2 |
| 20260901053504 | 76 | 0 | 0.0 | 0.0 | 0.00 | 0.00 | 0.00 | 92 | 1013.3 |
| 20260901053009 | 76 | 0 | 0.0 | 0.0 | 0.00 | 0.00 | 0.00 | 92 | 1013.3 |
| 20260901052503 | 76 | 0 | 0.0 | 0.0 | 0.00 | 0.00 | 0.00 | 92 | 1013.3 |
| 20260901052003 | 77 | 0 | 0.0 | 0.0 | 0.00 | 0.00 | 0.00 | 92 | 1013.2 |
| 20260901051508 | 77 | 0 | 0.0 | 0.0 | 0.00 | 0.00 | 0.00 | 92 | 1013.2 |
| 20260901051004 | 77 | 0 | 0.0 | 0.0 | 0.00 | 0.00 | 0.00 | 92 | 1013.1 |
| 20260901050503 | 77 | 0 | 0.0 | 0.0 | 0.00 | 0.00 | 0.00 | 91 | 1013.0 |
| 20260901050010 | 77 | 0 | 0.0 | 0.0 | 0.00 | 0.00 | 0.00 | 91 | 1013.1 |
| 20260901045003 | 77 | 0 | 0.0 | 0.0 | 0.00 | 0.00 | 0.00 | 91 | 1013.2 |
| 20260901044509 | 77 | 0 | 0.0 | 0.0 | 0.00 | 0.00 | 0.00 | 91 | 1013.2 |
| 20260901044004 | 77 | 0 | 0.0 | 0.0 | 0.00 | 0.00 | 0.00 | 90 | 1013.2 |
| 20260901043503 | 77 | 0 | 0.0 | 0.0 | 0.00 | 0.00 | 0.00 | 90 | 1013.2 |
| 20260901043008 | 77 | 0 | 0.0 | 0.0 | 0.00 | 0.00 | 0.00 | 90 | 1013.2 |
| 20260901042003 | 78 | 0 | 0.0 | 0.0 | 0.00 | 0.00 | 0.00 | 90 | 1013.2 |
| 20260901041003 | 78 | 0 | 0.0 | 0.0 | 0.00 | 0.00 | 0.00 | 89 | 1013.2 |
| 20260901040503 | 78 | 0 | 0.0 | 0.0 | 0.00 | 0.00 | 0.00 | 89 | 1013.3 |
| 20260901040008 | 78 | 0 | 0.0 | 0.0 | 0.00 | 0.00 | 0.00 | 89 | 1013.2 |
| 20260901035504 | 78 | 0 | 0.0 | 0.0 | 0.00 | 0.00 | 0.00 | 89 | 1013.2 |
| 20260901035003 | 78 | 0 | 0.0 | 0.0 | 0.00 | 0.00 | 0.00 | 88 | 1013.2 |
| 20260901034508 | 78 | 0 | 0.0 | 0.0 | 0.00 | 0.00 | 0.00 | 88 | 1013.1 |
| 20260901034003 | 78 | 0 | 0.0 | 0.0 | 0.00 | 0.00 | 0.00 | 88 | 1013.0 |
| 20260901032503 | 78 | 0 | 0.0 | 0.0 | 0.00 | 0.00 | 0.00 | 87 | 1012.9 |
| 20260901032003 | 78 | 0 | 0.0 | 0.0 | 0.00 | 0.00 | 0.00 | 86 | 1012.9 |
| 20260901031004 | 78 | 0 | 0.0 | 0.0 | 0.00 | 0.00 | 0.00 | 87 | 1012.9 |
| 20260901030504 | 79 | 0 | 0.0 | 0.0 | 0.00 | 0.00 | 0.00 | 86 | 1012.9 |
| 20260901030008 | 79 | 0 | 0.0 | 0.0 | 0.00 | 0.00 | 0.00 | 86 | 1012.9 |
| 20260901025503 | 79 | 0 | 0.0 | 0.0 | 0.00 | 0.00 | 0.00 | 86 | 1012.8 |
| 20260901025004 | 79 | 0 | 0.0 | 0.0 | 0.00 | 0.00 | 0.00 | 86 | 1012.7 |
| 20260901024508 | 79 | 0 | 0.0 | 0.0 | 0.00 | 0.00 | 0.00 | 86 | 1012.7 |
| 20260901024003 | 79 | 0 | 0.0 | 0.0 | 0.00 | 0.00 | 0.00 | 86 | 1012.6 |
| 20260901023503 | 80 | 0 | 0.0 | 0.0 | 0.00 | 0.00 | 0.00 | 85 | 1012.5 |
| 20260901023008 | 80 | 0 | 0.0 | 0.0 | 0.00 | 0.00 | 0.00 | 85 | 1012.5 |
| 20260901022504 | 80 | 0 | 0.0 | 0.0 | 0.00 | 0.00 | 0.00 | 85 | 1012.5 |
| 20260901022003 | 80 | 0 | 0.0 | 0.0 | 0.00 | 0.00 | 0.00 | 84 | 1012.5 |
| 20260901021003 | 80 | 0 | 0.0 | 0.0 | 0.00 | 0.00 | 0.00 | 84 | 1012.3 |
| 20260901020503 | 81 | 0 | 0.0 | 0.0 | 0.00 | 0.00 | 0.00 | 84 | 1012.3 |
| 20260901020008 | 81 | 0 | 0.0 | 0.0 | 0.00 | 0.00 | 0.00 | 84 | 1012.2 |
| 20260901015504 | 81 | 0 | 0.0 | 0.0 | 0.00 | 0.00 | 0.00 | 83 | 1012.2 |
| 20260901015004 | 81 | 0 | 0.0 | 0.0 | 0.00 | 0.00 | 0.00 | 83 | 1012.1 |
| 20260901014508 | 82 | 0 | 0.0 | 0.0 | 0.00 | 0.00 | 0.00 | 83 | 1012.0 |
| 20260901012503 | 83 | 0 | 0.0 | 0.0 | 0.00 | 0.00 | 0.00 | 81 | 1012.0 |
| 20260901012004 | 83 | 0 | 0.0 | 0.0 | 0.00 | 0.00 | 0.00 | 81 | 1012.0 |
| 20260901011004 | 84 | 0 | 0.0 | 0.0 | 0.00 | 0.00 | 0.00 | 80 | 1012.1 |
| 20260901010503 | 84 | 0 | 0.0 | 0.0 | 0.00 | 0.00 | 0.00 | 79 | 1012.1 |
| 20260901010009 | 84 | 0 | 0.0 | 0.0 | 0.00 | 0.00 | 0.00 | 79 | 1012.1 |
| 20260901005503 | 85 | 0 | 0.0 | 0.0 | 0.00 | 0.00 | 0.00 | 78 | 1012.2 |
| 20260901005003 | 85 | 0 | 0.0 | 0.0 | 0.00 | 0.00 | 0.00 | 78 | 1012.2 |
| 20260901004508 | 85 | 0 | 0.0 | 0.0 | 0.00 | 0.00 | 0.00 | 77 | 1012.2 |
| 20260901004003 | 86 | 0 | 0.0 | 0.0 | 0.00 | 0.00 | 0.00 | 76 | 1012.2 |
| 20260901003504 | 86 | 0 | 0.0 | 0.0 | 0.00 | 0.00 | 0.00 | 75 | 1012.3 |
| 20260901003008 | 86 | 0 | 0.0 | 0.0 | 0.00 | 0.00 | 0.00 | 75 | 1012.3 |
| 20260901002503 | 87 | 0 | 0.0 | 0.0 | 0.00 | 0.00 | 0.00 | 74 | 1012.3 |
| 20260901002003 | 87 | 0 | 0.0 | 0.0 | 0.00 | 0.00 | 0.00 | 73 | 1012.3 |
| 20260901001003 | 88 | 0 | 0.0 | 0.0 | 0.00 | 0.00 | 0.00 | 72 | 1012.3 |
| 20260901000504 | 88 | 0 | 0.0 | 0.0 | 0.00 | 0.00 | 0.00 | 72 | 1012.3 |
| 20260901000008 | 88 | 0 | 0.0 | 0.0 | 0.00 | 0.00 | 0.00 | 71 | 1012.3 |
| 20260831235503 | 88 | 0 | 0.0 | 0.0 | 0.00 | 0.00 | 0.00 | 70 | 1012.3 |
| 20260831234004 | 88 | 0 | 0.0 | 0.0 | 0.00 | 0.00 | 0.00 | 74 | 1012.4 |
| 20260831233503 | 88 | 164 | 0.0 | 1.7 | 0.00 | 0.00 | 0.00 | 71 | 1012.3 |
| 20260831233008 | 88 | 164 | 0.0 | 1.7 | 0.00 | 0.00 | 0.00 | 71 | 1012.3 |
| 20260831232503 | 88 | 0 | 0.0 | 0.0 | 0.00 | 0.00 | 0.00 | 72 | 1012.3 |
| 20260831232003 | 88 | 0 | 0.0 | 0.0 | 0.00 | 0.00 | 0.00 | 72 | 1012.4 |
| 20260831231508 | 88 | 0 | 0.0 | 0.0 | 0.00 | 0.00 | 0.00 | 73 | 1012.3 |
| 20260831230504 | 88 | 0 | 0.0 | 0.0 | 0.00 | 0.00 | 0.00 | 74 | 1012.2 |
| 20260831230008 | 88 | 0 | 0.0 | 0.0 | 0.00 | 0.00 | 0.00 | 74 | 1012.3 |
| 20260831225503 | 88 | 0 | 0.0 | 0.0 | 0.00 | 0.00 | 0.00 | 73 | 1012.4 |
| 20260831225003 | 88 | 0 | 0.0 | 0.0 | 0.00 | 0.00 | 0.00 | 73 | 1012.4 |
| 20260831224508 | 88 | 181 | 0.0 | 0.9 | 0.00 | 0.00 | 0.00 | 72 | 1012.2 |
| 20260831224003 | 88 | 174 | 0.0 | 1.7 | 0.00 | 0.00 | 0.00 | 72 | 1012.3 |
| 20260831223504 | 88 | 169 | 0.0 | 1.7 | 0.00 | 0.00 | 0.00 | 71 | 1012.3 |
| 20260831223009 | 89 | 163 | 0.0 | 1.7 | 0.00 | 0.00 | 0.00 | 70 | 1012.3 |
| 20260831222003 | 89 | 177 | 0.9 | 1.7 | 0.00 | 0.00 | 0.00 | 70 | 1012.4 |
| 20260831220503 | 89 | 170 | 0.0 | 1.7 | 0.00 | 0.00 | 0.00 | 71 | 1012.4 |
| 20260831220009 | 89 | 168 | 0.0 | 1.7 | 0.00 | 0.00 | 0.00 | 72 | 1012.5 |
| 20260831215503 | 89 | 162 | 0.0 | 0.9 | 0.00 | 0.00 | 0.00 | 73 | 1012.4 |
| 20260831215003 | 89 | 162 | 0.0 | 1.7 | 0.00 | 0.00 | 0.00 | 73 | 1012.4 |
| 20260831214508 | 89 | 164 | 0.0 | 1.7 | 0.00 | 0.00 | 0.00 | 72 | 1012.4 |
| 20260831213503 | 89 | 182 | 1.7 | 3.5 | 0.00 | 0.00 | 0.00 | 70 | 1012.5 |
| 20260831213008 | 89 | 184 | 0.9 | 3.5 | 0.00 | 0.00 | 0.00 | 70 | 1012.6 |
| 20260831212503 | 90 | 189 | 0.9 | 2.6 | 0.00 | 0.00 | 0.00 | 69 | 1012.6 |
| 20260831212004 | 90 | 198 | 0.0 | 2.6 | 0.00 | 0.00 | 0.00 | 69 | 1012.6 |
| 20260831211508 | 90 | 214 | 0.0 | 1.7 | 0.00 | 0.00 | 0.00 | 71 | 1012.6 |
| 20260831211004 | 90 | 201 | 0.9 | 1.7 | 0.00 | 0.00 | 0.00 | 69 | 1012.5 |
| 20260831210008 | 90 | 214 | 0.9 | 1.7 | 0.00 | 0.00 | 0.00 | 70 | 1012.6 |
| 20260831205504 | 90 | 187 | 0.9 | 3.5 | 0.00 | 0.00 | 0.00 | 70 | 1012.7 |
| 20260831205003 | 90 | 187 | 0.9 | 3.5 | 0.00 | 0.00 | 0.00 | 70 | 1012.7 |
| 20260831204003 | 90 | 210 | 0.9 | 3.5 | 0.00 | 0.00 | 0.00 | 68 | 1012.7 |
| 20260831203503 | 90 | 205 | 0.9 | 3.5 | 0.00 | 0.00 | 0.00 | 69 | 1012.8 |
| 20260831203008 | 91 | 218 | 0.9 | 1.7 | 0.00 | 0.00 | 0.00 | 68 | 1012.9 |
| 20260831202004 | 90 | 190 | 0.9 | 2.6 | 0.00 | 0.00 | 0.00 | 68 | 1013.0 |
| 20260831201508 | 91 | 202 | 0.9 | 2.6 | 0.00 | 0.00 | 0.00 | 68 | 1012.9 |
| 20260831201003 | 91 | 188 | 0.9 | 2.6 | 0.00 | 0.00 | 0.00 | 67 | 1012.9 |
| 20260831200503 | 91 | 184 | 0.9 | 3.5 | 0.00 | 0.00 | 0.00 | 67 | 1012.9 |
| 20260831195004 | 92 | 211 | 0.0 | 2.6 | 0.00 | 0.00 | 0.00 | 64 | 1012.9 |
| 20260831194003 | 92 | 183 | 0.9 | 2.6 | 0.00 | 0.00 | 0.00 | 64 | 1013.0 |
| 20260831193503 | 92 | 200 | 0.9 | 2.6 | 0.00 | 0.00 | 0.00 | 68 | 1013.1 |
| 20260831193008 | 91 | 292 | 0.0 | 2.6 | 0.00 | 0.00 | 0.00 | 67 | 1013.0 |
| 20260831192003 | 91 | 185 | 0.9 | 3.5 | 0.00 | 0.00 | 0.00 | 66 | 1012.9 |
| 20260831191003 | 91 | 235 | 0.0 | 1.7 | 0.00 | 0.00 | 0.00 | 67 | 1012.9 |
| 20260831190503 | 91 | 190 | 0.9 | 2.6 | 0.00 | 0.00 | 0.00 | 66 | 1012.9 |
| 20260831190008 | 90 | 206 | 0.9 | 2.6 | 0.00 | 0.00 | 0.00 | 64 | 1012.9 |
| 20260831185004 | 90 | 240 | 0.9 | 3.5 | 0.00 | 0.00 | 0.00 | 65 | 1013.0 |
| 20260831184508 | 90 | 288 | 0.9 | 4.3 | 0.00 | 0.00 | 0.00 | 65 | 1013.0 |
| 20260831184003 | 90 | 322 | 0.9 | 4.3 | 0.00 | 0.00 | 0.00 | 66 | 1013.0 |
| 20260831183504 | 90 | 150 | 0.0 | 1.7 | 0.00 | 0.00 | 0.00 | 69 | 1013.0 |
| 20260831183008 | 89 | 201 | 0.0 | 2.6 | 0.00 | 0.00 | 0.00 | 66 | 1013.0 |
| 20260831182504 | 88 | 195 | 0.0 | 2.6 | 0.00 | 0.00 | 0.00 | 68 | 1013.0 |
| 20260831182004 | 88 | 205 | 0.0 | 1.7 | 0.00 | 0.00 | 0.00 | 69 | 1013.0 |
| 20260831181508 | 88 | 266 | 0.0 | 0.9 | 0.00 | 0.00 | 0.00 | 68 | 1013.0 |
| 20260831181003 | 88 | 181 | 0.0 | 1.7 | 0.00 | 0.00 | 0.00 | 68 | 1013.0 |
| 20260831180009 | 88 | 223 | 0.9 | 2.6 | 0.00 | 0.00 | 0.00 | 72 | 1012.8 |
| 20260831175503 | 87 | 346 | 0.0 | 1.7 | 0.00 | 0.00 | 0.00 | 71 | 1012.9 |
| 20260831175004 | 87 | 349 | 0.0 | 1.7 | 0.00 | 0.00 | 0.00 | 69 | 1012.9 |
| 20260831174508 | 87 | 175 | 0.0 | 0.9 | 0.00 | 0.00 | 0.00 | 69 | 1012.9 |
| 20260831174003 | 86 | 184 | 0.0 | 0.9 | 0.00 | 0.00 | 0.00 | 70 | 1012.9 |